EHI
0 0 0 0 0 0 0 0 0 0 0 0 0 0 0 0 0 0 0 0 0 0 0 0 0 0 0 0 1 2 2 1 0 1 1 1 0 0 0 0 0 0 0 0
0 0 0 0 0 0 0 0 0 0 0 0 0 0 0 0 0 0 0 0 0 0 0 0 0 0 0 0 1 2 2 1 1 2 2 1 0 0 0 0 0 0 0 0
0 0 0 0 0 0 0 0 0 0 0 0 0 0 0 0 0 0 0 0 0 0 0 0 0 0 0 0 0 1 2 3 2 2 2 1 0 0 0 0 0 0 0 0
0 0 0 0 0 0 0 0 0 0 0 0 0 0 0 0 0 0 0 0 0 0 0 0 0 0 0 0 0 1 2 2 2 1 1 0 0 0 0 0 0 0 0 0
0 0 0 0 0 0 0 0 0 0 0 0 0 0 0 0 0 0 0 0 0 0 0 0 0 0 0 0 0 0 1 1 1 0 0 0 0 0 0 0 0 0 0 0
0 0 0 0 0 0 0 0 0 0 0 0 0 0 0 0 0 0 0 0 0 0 0 0 0 0 0 0 0 0 0 0 0 0 0 0 0 0 0 0 0 0 0 0
0 0 0 0 0 0 0 0 0 0 0 0 0 0 0 0 0 0 0 0 0 0 0 0 0 0 1 0 0 0 0 0 0 0 0 0 0 0 0 0 0 0 0 0
0 0 0 0 0 0 0 0 0 0 0 0 0 0 0 0 0 0 0 0 0 0 0 0 0 0 0 0 0 0 0 0 0 0 1 1 0 0 0 0 0 0 0 0
0 0 0 0 0 0 0 0 0 0 0 0 0 0 0 0 0 0 0 0 0 0 0 0 0 0 0 0 0 0 0 0 0 0 1 1 0 0 0 0 0 0 0 0
0 0 0 0 0 0 0 0 0 0 0 0 0 0 0 0 0 0 0 0 0 0 0 0 0 0 0 0 0 0 0 0 0 0 1 1 0 0 0 0 0 0 0 0
0 0 0 0 0 0 0 0 0 0 0 0 0 0 0 0 0 0 0 0 0 0 0 0 0 0 0 0 0 0 0 0 0 0 0 0 0 0 0 0 0 0 0 0
0 0 0 0 0 0 0 0 0 0 0 0 0 0 0 0 0 0 0 0 0 0 0 0 0 0 0 0 0 0 0 0 0 0 0 0 0 0 0 0 0 0 0 0
0 0 0 0 0 0 0 0 0 0 0 0 0 0 0 0 0 0 0 0 0 0 0 0 0 0 0 0 0 0 0 0 0 0 0 0 0 0 0 0 0 0 0 0
0 0 0 0 0 0 0 0 0 0 0 0 0 0 0 0 0 0 0 0 0 0 0 0 0 0 0 0 0 0 0 0 0 0 0 0 0 0 0 0 0 0 0 0
0 0 0 0 0 0 0 0 0 0 0 0 0 0 0 0 0 0 0 0 0 0 0 0 0 0 0 0 0 0 0 0 0 0 0 0 0 0 0 0 0 0 0 0
0 0 0 0 0 0 0 0 0 0 0 0 0 0 0 0 0 0 0 0 0 0 0 0 0 0 0 0 0 0 0 0 0 0 0 0 0 0 0 0 0 0 1 1
0 0 0 0 0 0 0 0 0 0 0 0 0 0 0 0 0 0 0 0 0 0 0 0 0 0 0 0 0 0 0 0 0 0 0 0 0 0 0 0 0 0 1 2
0 0 0 0 0 0 0 0 0 0 0 0 0 0 0 0 0 0 0 0 0 0 0 0 0 0 0 0 0 0 0 0 0 0 0 0 0 0 0 0 0 0 1 1
0 0 0 0 0 0 0 0 0 0 0 0 0 0 0 0 0 0 0 0 0 0 0 0 0 0 0 0 0 0 0 0 0 0 0 0 0 0 0 0 0 0 0 0
0 0 0 0 0 0 0 0 0 0 0 0 0 0 0 0 0 0 0 0 0 0 0 0 0 0 0 0 0 0 0 0 0 0 0 0 0 0 0 0 0 0 0 0
0 0 0 0 0 0 0 0 0 0 0 0 0 0 0 0 0 0 0 0 0 0 0 0 0 0 0 0 0 0 0 0 0 0 0 0 0 0 0 0 0 0 0 0
0 0 0 0 0 0 0 0 0 0 0 0 0 0 0 0 0 0 0 0 0 0 0 0 0 0 0 0 0 0 0 0 0 0 0 0 0 0 0 0 0 0 0 0
0 0 0 0 0 0 0 0 0 0 0 0 0 0 0 0 0 0 0 0 0 0 0 0 0 0 0 0 0 0 0 0 0 0 0 0 0 0 0 0 0 0 0 0
0 0 0 0 0 0 0 0 0 0 0 0 0 0 0 0 0 0 0 0 0 0 0 0 0 0 0 0 0 0 0 0 0 0 0 0 0 0 0 0 0 0 0 0
0 0 0 0 0 0 0 0 0 0 0 0 0 0 0 0 0 0 0 0 0 0 0 0 0 0 0 0 0 0 0 0 0 0 0 0 0 0 0 0 0 0 0 0
0 0 0 0 0 0 0 0 0 0 0 0 0 0 0 0 0 0 0 0 0 0 0 0 0 0 0 0 0 0 0 0 0 0 0 0 0 0 0 0 0 0 0 0
Wind_Speed
4 2 3 4 4 7 7 6 6 6 5 5 6 8 8 6 4 4 3 3 3 3 3 2 3 3 3 3 4 6 6 6 5 4 4 4 5 5 5 5 6 7 7 8
2 3 5 7 5 6 4 4 5 5 4 4 6 7 7 4 3 2 2 2 2 3 3 2 3 3 3 4 4 5 6 6 6 5 4 4 4 4 4 4 6 6 7 8
2 3 4 5 4 4 3 3 4 5 7 5 5 5 3 2 2 2 2 2 2 3 4 4 4 4 3 4 4 4 6 6 6 6 4 3 2 3 4 5 5 5 7 8
2 3 4 4 4 4 4 3 4 5 4 3 3 2 2 0 1 1 1 2 1 1 2 3 4 4 4 4 3 4 6 6 6 6 5 6 4 4 5 4 4 5 6 7
1 3 3 4 5 5 3 5 6 6 4 3 3 1 2 3 4 4 3 3 3 2 1 3 3 3 4 3 3 4 5 5 5 5 6 6 5 4 4 4 5 6 5 7
3 1 2 4 5 3 4 5 6 5 2 2 2 1 2 4 5 6 6 5 4 3 4 3 2 2 3 3 3 3 4 5 5 5 6 6 7 7 7 6 7 6 5 5
1 2 0 3 4 2 3 3 2 1 1 1 1 2 2 5 7 6 6 5 5 4 4 3 2 3 2 2 3 2 3 5 5 5 5 6 7 7 8 8 7 7 5 5
1 0 1 1 2 3 3 2 2 2 2 1 2 2 2 5 7 7 8 7 7 6 5 4 3 2 2 1 2 1 2 4 4 5 5 5 5 5 5 6 5 6 6 6
2 1 1 1 2 3 3 2 2 2 3 1 0 2 3 7 8 9 10 9 9 8 7 6 5 5 3 2 1 1 1 2 3 3 3 4 5 5 5 5 4 4 5 5
3 1 1 0 1 1 2 3 2 2 2 1 0 2 3 6 8 8 9 9 9 9 8 6 6 5 5 4 2 0 0 1 1 1 1 2 4 4 4 4 4 4 5 6
2 1 1 0 1 2 2 2 2 2 1 1 1 2 4 4 6 7 8 8 9 8 8 7 6 6 5 5 4 3 2 2 1 0 1 1 2 3 3 3 3 3 3 5
1 1 1 0 2 1 2 2 2 1 3 1 0 1 3 4 5 6 7 8 8 8 8 7 7 7 7 6 6 5 4 3 3 2 1 1 0 1 2 2 3 3 3 4
2 1 2 1 1 0 1 2 2 2 1 1 0 1 2 4 5 7 7 7 7 7 8 8 8 8 7 6 6 6 6 5 4 3 2 1 1 0 1 1 2 2 3 3
2 1 1 1 1 0 1 2 2 1 0 1 1 1 2 5 6 6 6 6 6 6 7 8 7 7 7 6 6 6 6 6 5 4 3 2 2 1 0 1 1 2 2 3
1 1 2 3 3 2 2 2 1 1 2 2 1 1 2 3 4 5 5 6 6 7 8 8 8 7 8 7 7 6 6 5 5 4 3 3 2 2 1 1 1 1 2 2
1 1 2 2 2 2 3 4 3 2 3 3 2 3 2 3 4 5 5 6 6 7 8 8 8 8 8 7 7 6 6 6 5 4 3 3 3 2 2 0 1 2 2 2
1 1 1 2 1 3 4 4 4 2 2 2 3 1 2 3 4 4 5 5 6 7 7 8 8 8 7 7 7 6 5 5 5 4 4 4 3 3 2 1 1 2 2 2
1 1 1 2 2 3 2 2 2 3 2 2 1 0 1 2 2 3 3 5 6 6 7 7 7 7 7 6 6 6 5 5 5 4 4 4 3 3 2 1 1 1 2 2
1 1 1 1 3 4 3 3 2 2 2 3 2 0 1 2 2 1 4 4 4 5 5 6 6 6 6 6 6 6 6 6 5 5 4 3 3 3 2 1 1 1 2 2
1 1 1 2 2 4 1 5 3 1 2 2 3 1 0 1 2 2 3 4 5 5 5 6 6 6 6 6 6 6 6 6 6 6 5 3 2 2 2 1 1 1 2 2
3 3 3 3 4 5 3 5 4 2 3 3 3 1 0 1 2 2 3 4 4 5 5 5 5 5 6 6 6 6 6 6 6 6 5 4 3 2 1 1 1 2 2 3
6 5 5 4 5 6 5 5 4 3 3 3 2 2 1 0 1 2 3 4 4 5 5 5 5 5 5 5 5 6 6 7 6 5 5 4 3 2 1 1 1 1 2 3
5 5 4 5 6 2 5 4 3 3 3 2 2 2 2 0 1 2 2 3 3 4 4 5 5 5 5 5 5 6 6 7 6 5 4 3 3 2 1 0 1 1 2 2
4 2 1 3 4 4 5 4 3 3 2 2 3 2 1 0 1 2 2 2 3 4 4 4 5 5 5 5 5 5 6 6 5 5 4 3 2 2 2 1 0 1 1 1
4 5 3 5 4 3 5 6 5 4 3 3 2 2 1 0 1 1 2 2 2 3 3 3 4 4 5 5 5 6 6 6 6 5 4 3 2 1 1 1 1 1 1 1
6 7 8 7 6 5 5 6 7 6 5 4 3 2 1 1 0 1 2 2 2 3 3 3 4 5 5 5 5 5 6 6 5 4 4 3 2 1 1 1 2 3 1 1
Wind_Direction
204 239 262 281 272 282 285 290 294 295 300 294 276 272 279 276 266 260 261 236 216 209 214 212 189 184 191 190 189 187 172 179 172 166 162 162 183 174 166 172 176 170 169 168
221 255 276 288 289 294 297 308 299 298 312 307 287 278 273 268 255 244 242 250 222 208 198 202 194 189 183 196 190 185 178 179 172 175 167 165 175 174 167 170 174 175 173 170
255 304 306 293 295 309 306 307 307 310 315 280 269 283 256 224 228 235 240 253 244 219 192 194 186 176 169 190 192 191 184 186 180 174 159 150 163 161 169 176 178 181 179 173
284 297 306 306 309 308 300 313 303 301 311 301 310 309 338 178 175 270 326 344 314 250 188 177 173 168 172 181 185 197 197 190 189 175 167 165 179 189 185 180 179 182 190 179
312 351 337 321 316 315 297 306 291 279 283 288 264 253 312 25 27 17 21 5 353 360 99 147 159 166 164 158 173 192 190 187 191 178 172 176 189 199 181 176 176 181 191 182
250 324 343 319 313 304 305 297 279 256 250 277 265 190 357 17 16 17 20 13 8 25 56 76 99 128 135 145 159 178 172 187 186 178 182 187 195 196 182 181 183 182 187 184
254 182 151 315 322 328 338 333 330 309 206 248 37 77 29 22 28 23 22 19 19 36 46 62 68 91 111 143 148 158 170 188 183 179 189 193 199 203 195 190 190 186 187 190
301 117 91 2 338 327 322 329 349 326 331 353 17 59 54 37 34 28 27 33 28 27 34 46 48 69 87 103 121 132 206 200 186 185 193 198 199 206 205 203 199 194 193 193
339 36 89 48 314 320 326 353 312 293 291 303 140 126 84 32 37 32 26 27 28 23 25 28 29 31 24 22 94 152 216 196 183 188 196 198 197 200 204 200 202 200 192 188
337 332 301 119 260 274 316 319 323 332 336 343 35 70 24 10 20 28 23 19 18 17 21 22 25 24 16 9 4 43 235 218 186 191 196 208 200 198 191 193 202 203 191 186
345 332 307 94 24 350 352 344 322 302 309 349 1 30 39 39 31 27 22 16 14 14 14 16 19 21 18 15 11 20 10 360 26 230 195 200 193 184 174 183 194 199 196 188
350 309 291 171 99 357 338 338 341 344 330 329 93 329 47 54 49 35 26 18 16 16 14 14 20 19 16 14 12 17 11 12 6 358 354 323 349 180 178 186 194 189 189 190
344 320 307 187 140 5 344 328 319 327 341 330 97 235 55 47 39 34 27 18 16 17 17 16 18 16 13 13 14 15 12 7 3 8 2 0 5 332 188 181 184 175 172 176
323 315 297 343 8 357 294 305 313 76 115 315 199 248 355 21 23 20 17 14 17 19 17 17 15 11 9 14 16 13 9 4 3 7 2 360 359 359 307 199 173 167 166 170
301 287 298 301 302 290 280 282 275 199 212 213 254 330 356 16 18 14 9 9 15 19 17 13 10 4 3 9 11 8 4 2 3 9 9 1 5 14 28 59 149 153 160 166
299 287 324 291 249 249 279 270 253 251 237 237 271 302 41 34 25 16 11 10 11 14 9 5 4 3 3 1 -0 358 357 357 359 4 2 1 5 14 12 12 153 138 143 144
192 230 287 268 249 288 270 235 204 199 207 217 246 256 34 29 18 8 6 10 9 4 359 359 358 356 356 353 353 350 349 354 357 357 356 0 4 8 5 12 105 140 139 136
234 265 260 294 313 264 203 70 133 179 215 219 248 0 34 30 10 12 26 22 4 358 355 354 352 348 347 349 350 346 350 355 353 355 358 359 358 359 1 22 79 105 116 129
321 293 297 291 284 266 172 161 160 181 250 198 191 185 8 29 352 8 38 18 355 354 353 347 344 340 342 348 349 347 347 349 351 352 353 354 357 355 349 348 66 90 100 105
305 305 281 260 265 258 174 130 113 106 266 167 153 172 358 13 304 295 15 5 357 357 356 351 345 345 349 348 348 347 344 349 345 343 340 341 347 358 357 356 37 76 104 111
184 203 219 235 253 265 134 130 129 169 226 133 137 152 140 235 244 307 350 345 349 352 351 350 348 348 346 345 351 350 348 345 337 335 336 340 347 353 354 28 72 102 109 112
184 185 199 199 224 244 147 145 187 193 126 126 129 123 109 12 348 344 341 339 342 344 347 351 347 344 344 349 353 348 342 334 334 335 336 335 337 349 13 87 97 111 123 126
203 200 194 199 212 179 161 166 145 121 135 134 130 104 96 18 330 337 335 336 337 339 344 347 340 338 343 350 354 345 335 333 333 336 336 333 342 353 357 129 149 148 151 147
217 194 232 263 245 198 188 179 161 144 139 121 116 108 100 355 341 345 337 331 333 336 337 337 337 337 340 345 346 343 337 333 332 334 330 332 339 338 336 348 149 182 181 168
201 170 208 246 248 219 208 194 181 160 140 131 128 133 136 107 330 334 323 320 323 325 327 331 329 330 333 338 341 343 340 339 335 333 329 332 329 327 337 340 336 294 266 201
195 188 192 221 205 190 207 182 169 163 169 168 170 177 157 147 295 325 313 318 325 327 330 330 330 332 334 338 339 341 341 340 336 332 331 330 327 325 332 336 357 17 357 2